SKYSAT C12

导读 | 星芒AI

SKYSAT C12 是 Skybox Imaging(现为 Planet Labs 旗下)发射的一颗高分辨率商业地球观测卫星。该卫星具备先进的光学成像能力,可提供亚米级分辨率的高清影像,广泛应用于农业、城市规划、环境监测和灾害评估等领域。SKYSAT C12 具备快速重访能力和高机动性,支持对全球重点区域进行频繁观测。作为 SkySat 卫星星座的一部分,它增强了 Planet Labs 提供实时地球数据和图像服务的能力。

基本信息
目录编号:
43797
目录名称:
SKYSAT C12
国际标识:
2018-099AR
轨道中心:
EARTH
卫星名称:
SKYSAT C12
卫星全名:
--
卫星状态:
在轨 (已飞行2515 天)
发射日期:
2018-12-03 UTC
国别 :
美国 (US)
星等 :
--
轨道信息
数据来源 国际轨道数据
星历时间: 2025-10-22T08:57:00+0800
13小时前
查看轨道信息
半长轴: 6823.241km
偏心率: 0.0003029
轨道倾角: 96.954°
近地点辐角 326.867°
升交点赤经 323.892°
平近点角 33.239°
近地点: 443.039km
远地点: 447.173km
周期: 93.486分钟
每日圈数: 15.403407
详细信息
使用方式:
暂无
2D轨道图
3D轨道图
轨道高度分析图
轨道倾角分析图
轨道综合分析图
查看轨道综合分析图